User: anonymous   Login
Location: Unspecified
(0.0000°N, 0.0000°E)
Time: 17:03:52
(UTC+00:00)
Language:

Okean 1 - Orbit

View from above orbital plane
View from above orbital plane
View from above satellite
View from above satellite

Ground track
Ground track

The orbit data is extracted from the following two-line orbital elements,

1 19274U 88056A   18175.04109730 -.00000052  00000-0 -56083-5 0  9992
2 19274  82.5040 149.1467 0013951 124.8861 235.3680 15.06021633630918
Epoch (UTC): 24 June 2018 00:59:10
Eccentricity: 0.0013951
inclination: 82.5040°
perigee height: 539 km
apogee height: 558 km
right ascension of ascending node: 149.1467°
argument of perigee: 124.8861°
revolutions per day: 15.06021633
mean anomaly at epoch: 235.3680°
orbit number at epoch: 63091

The dashed part of the orbit path shows where the satellite is in the earth's shadow,  

DLR